| time (UTC) | temp F | wind direction | speed MPH | gust MPH | rain 1hr in | rain 24hr in | rain mn in | humidity % | barometer mb |
| 20260506234515 | 58 | 297 | 3.0 | 9.0 | 0.00 | 0.07 | 0.00 | 41 | 1014.5 |
| 20260506233014 | 58 | 304 | 5.0 | 11.0 | 0.00 | 0.07 | 0.00 | 40 | 1014.5 |
| 20260506231513 | 59 | 326 | 0.0 | 11.0 | 0.00 | 0.07 | 0.00 | 42 | 1014.6 |
| 20260506230011 | 59 | 355 | 3.0 | 9.0 | 0.00 | 0.07 | 0.00 | 41 | 1014.5 |
| 20260506224522 | 60 | 349 | 4.0 | 10.0 | 0.00 | 0.07 | 0.00 | 41 | 1014.5 |
| 20260506223010 | 59 | 286 | 6.0 | 12.0 | 0.00 | 0.07 | 0.00 | 41 | 1014.6 |
| 20260506220009 | 60 | 355 | 4.0 | 11.0 | 0.00 | 0.09 | 0.00 | 42 | 1014.5 |
| 20260506214509 | 59 | 360 | 3.0 | 9.0 | 0.00 | 0.09 | 0.00 | 43 | 1014.4 |
| 20260506213013 | 59 | 292 | 5.0 | 11.0 | 0.00 | 0.09 | 0.00 | 42 | 1014.4 |
| 20260506211509 | 59 | 295 | 6.0 | 12.0 | 0.00 | 0.09 | 0.00 | 42 | 1014.3 |
| 20260506210007 | 62 | 284 | 3.0 | 12.0 | 0.00 | 0.12 | 0.00 | 39 | 1014.3 |
| 20260506204507 | 62 | 299 | 6.0 | 13.0 | 0.00 | 0.12 | 0.00 | 40 | 1014.3 |
| 20260506203006 | 59 | 348 | 4.0 | 12.0 | 0.00 | 0.12 | 0.00 | 41 | 1014.5 |
| 20260506201506 | 61 | 345 | 5.0 | 10.0 | 0.00 | 0.12 | 0.00 | 39 | 1014.6 |
| 20260506200006 | 64 | 321 | 4.0 | 9.0 | 0.00 | 0.15 | 0.00 | 41 | 1014.5 |
| 20260506194503 | 59 | 288 | 3.0 | 9.0 | 0.00 | 0.15 | 0.00 | 46 | 1014.5 |
| 20260506193002 | 59 | 315 | 4.0 | 11.0 | 0.00 | 0.15 | 0.00 | 44 | 1014.8 |
| 20260506191504 | 59 | 336 | 4.0 | 10.0 | 0.00 | 0.15 | 0.00 | 43 | 1014.7 |
| 20260506190002 | 62 | 283 | 5.0 | 10.0 | 0.00 | 0.15 | 0.00 | 40 | 1014.8 |
| 20260506184502 | 63 | 304 | 5.0 | 11.0 | 0.00 | 0.15 | 0.00 | 38 | 1014.8 |
| 20260506183111 | 61 | 310 | 4.0 | 9.0 | 0.00 | 0.15 | 0.00 | 41 | 1014.8 |
| 20260506181601 | 61 | 294 | 2.0 | 6.0 | 0.00 | 0.15 | 0.00 | 40 | 1014.8 |
| 20260506180057 | 59 | 307 | 2.0 | 9.0 | 0.00 | 0.15 | 0.00 | 49 | 1014.8 |
| 20260506174607 | 59 | 295 | 4.0 | 8.0 | 0.00 | 0.15 | 0.00 | 51 | 1015.0 |
| 20260506173056 | 55 | 296 | 1.0 | 5.0 | 0.00 | 0.15 | 0.00 | 56 | 1015.2 |
| 20260506171548 | 54 | 290 | 0.0 | 0.0 | 0.00 | 0.15 | 0.00 | 60 | 1015.3 |
| 20260506170046 | 54 | 309 | 0.0 | 0.0 | 0.00 | 0.15 | 0.00 | 63 | 1015.3 |
| 20260506164549 | 54 | 320 | 0.0 | 0.0 | 0.00 | 0.15 | 0.00 | 65 | 1015.3 |
| 20260506163056 | 53 | 321 | 0.0 | 0.0 | 0.00 | 0.15 | 0.00 | 65 | 1015.1 |
| 20260506161539 | 53 | 320 | 0.0 | 0.0 | 0.00 | 0.15 | 0.00 | 66 | 1014.7 |
| 20260506154538 | 52 | 336 | 0.0 | 0.0 | 0.00 | 0.17 | 0.00 | 67 | 1014.3 |
| 20260506153036 | 52 | 337 | 0.0 | 0.0 | 0.00 | 0.17 | 0.00 | 66 | 1014.2 |
| 20260506151540 | 53 | 348 | 0.0 | 0.0 | 0.00 | 0.17 | 0.00 | 67 | 1014.0 |
| 20260506150033 | 51 | 355 | 0.0 | 3.0 | 0.00 | 0.18 | 0.00 | 69 | 1013.9 |
| 20260506144532 | 52 | 337 | 0.0 | 1.0 | 0.00 | 0.18 | 0.00 | 67 | 1014.0 |
| 20260506143031 | 51 | 332 | 0.0 | 0.0 | 0.00 | 0.18 | 0.00 | 68 | 1014.0 |
| 20260506141525 | 49 | 326 | 0.0 | 0.0 | 0.00 | 0.18 | 0.00 | 72 | 1014.2 |
| 20260506140029 | 48 | 332 | 0.0 | 0.0 | 0.00 | 0.19 | 0.00 | 72 | 1014.1 |
| 20260506134521 | 48 | 332 | 0.0 | 0.0 | 0.00 | 0.19 | 0.00 | 74 | 1014.3 |
| 20260506133020 | 48 | 332 | 0.0 | 0.0 | 0.00 | 0.19 | 0.00 | 73 | 1014.3 |
| 20260506131521 | 48 | 331 | 0.0 | 0.0 | 0.00 | 0.19 | 0.00 | 75 | 1013.8 |
| 20260506130015 | 47 | 332 | 0.0 | 0.0 | 0.00 | 0.19 | 0.00 | 76 | 1013.5 |
| 20260506124513 | 47 | 332 | 0.0 | 0.0 | 0.00 | 0.19 | 0.00 | 79 | 1013.4 |
| 20260506123012 | 46 | 332 | 0.0 | 0.0 | 0.00 | 0.19 | 0.00 | 80 | 1012.9 |
| 20260506121508 | 46 | 331 | 0.0 | 1.0 | 0.00 | 0.19 | 0.00 | 82 | 1012.4 |
| 20260506120011 | 45 | 327 | 0.0 | 0.0 | 0.00 | 0.19 | 0.00 | 84 | 1012.5 |
| 20260506114505 | 45 | 326 | 0.0 | 0.0 | 0.00 | 0.19 | 0.00 | 86 | 1012.3 |
| 20260506113003 | 44 | 327 | 0.0 | 0.0 | 0.00 | 0.19 | 0.00 | 86 | 1012.0 |
| 20260506111502 | 44 | 327 | 0.0 | 0.0 | 0.00 | 0.19 | 0.00 | 85 | 1011.8 |
| 20260506110002 | 44 | 327 | 0.0 | 0.0 | 0.00 | 0.19 | 0.00 | 85 | 1011.8 |
| 20260506104609 | 44 | 328 | 0.0 | 0.0 | 0.00 | 0.19 | 0.00 | 86 | 1011.3 |
| 20260506103106 | 44 | 343 | 0.0 | 0.0 | 0.00 | 0.19 | 0.00 | 86 | 1011.2 |
| 20260506101632 | 44 | 355 | 0.0 | 0.0 | 0.00 | 0.19 | 0.00 | 87 | 1011.4 |
| 20260506100059 | 44 | 355 | 0.0 | 0.0 | 0.00 | 0.19 | 0.00 | 87 | 1010.9 |
| 20260506094600 | 44 | 355 | 0.0 | 0.0 | 0.00 | 0.19 | 0.00 | 88 | 1010.5 |
| 20260506093100 | 44 | 355 | 0.0 | 0.0 | 0.00 | 0.19 | 0.00 | 88 | 1010.8 |
| 20260506091555 | 44 | 360 | 0.0 | 0.0 | 0.00 | 0.19 | 0.00 | 89 | 1010.8 |
| 20260506090105 | 44 | 360 | 0.0 | 0.0 | 0.00 | 0.19 | 0.00 | 89 | 1010.7 |
| 20260506084651 | 45 | 360 | 0.0 | 0.0 | 0.00 | 0.19 | 0.00 | 89 | 1011.1 |
| 20260506083052 | 45 | 360 | 0.0 | 0.0 | 0.00 | 0.19 | 0.00 | 89 | 1011.0 |
| 20260506081548 | 46 | 360 | 0.0 | 0.0 | 0.00 | 0.19 | 0.00 | 88 | 1010.6 |
| 20260506073045 | 47 | 360 | 0.0 | 0.0 | 0.00 | 0.19 | 0.00 | 88 | 1010.4 |
| 20260506071542 | 47 | 360 | 0.0 | 0.0 | 0.00 | 0.19 | 0.00 | 88 | 1010.3 |
| 20260506061543 | 47 | 360 | 0.0 | 0.0 | 0.00 | 0.19 | 0.00 | 86 | 1009.7 |
| 20260506044530 | 47 | 25 | 0.0 | 0.0 | 0.02 | 0.62 | 0.25 | 85 | 1010.5 |
| 20260506043028 | 47 | 25 | 0.0 | 0.0 | 0.02 | 0.62 | 0.25 | 85 | 1010.5 |
| 20260506041536 | 47 | 25 | 0.0 | 1.0 | 0.01 | 0.61 | 0.24 | 86 | 1010.5 |
| 20260506040026 | 48 | 305 | 0.0 | 2.0 | 0.00 | 0.61 | 0.23 | 88 | 1010.4 |
| 20260506034534 | 48 | 293 | 0.0 | 0.0 | 0.01 | 0.61 | 0.23 | 89 | 1010.6 |
| 20260506033024 | 49 | 292 | 0.0 | 0.0 | 0.01 | 0.61 | 0.23 | 89 | 1010.6 |
| 20260506031524 | 49 | 284 | 0.0 | 0.0 | 0.01 | 0.61 | 0.23 | 89 | 1010.8 |
| 20260506030021 | 49 | 284 | 0.0 | 0.0 | 0.02 | 0.62 | 0.23 | 89 | 1010.3 |
| 20260506024519 | 49 | 284 | 0.0 | 0.0 | 0.01 | 0.61 | 0.22 | 89 | 1010.2 |
| 20260506023018 | 49 | 284 | 0.0 | 3.0 | 0.02 | 0.61 | 0.22 | 89 | 1009.9 |
| 20260506021515 | 49 | 360 | 0.0 | 0.0 | 0.02 | 0.61 | 0.22 | 88 | 1009.7 |
| 20260506020014 | 49 | 360 | 0.0 | 0.0 | 0.01 | 0.60 | 0.21 | 88 | 1009.4 |
| 20260506014513 | 49 | 360 | 0.0 | 0.0 | 0.01 | 0.59 | 0.20 | 87 | 1009.1 |
| 20260506013113 | 49 | 360 | 0.0 | 0.0 | 0.01 | 0.59 | 0.20 | 88 | 1009.0 |
| 20260506011523 | 49 | 360 | 0.0 | 0.0 | 0.01 | 0.59 | 0.20 | 87 | 1008.7 |
| 20260506010013 | 49 | 360 | 0.0 | 0.0 | 0.01 | 0.59 | 0.20 | 86 | 1008.9 |
| 20260506004512 | 48 | 9 | 0.0 | 0.0 | 0.00 | 0.57 | 0.19 | 85 | 1008.6 |
| 20260506003111 | 48 | 9 | 0.0 | 1.0 | 0.00 | 0.57 | 0.19 | 84 | 1008.5 |
| 20260506001510 | 48 | 343 | 0.0 | 0.0 | 0.00 | 0.57 | 0.19 | 84 | 1008.2 |
| 20260506000009 | 48 | 343 | 0.0 | 0.0 | 0.01 | 0.57 | 0.19 | 83 | 1008.3 |